Location: Gleizolles
(44.4833°N, 6.7667°E)
Time: 02:10:53
(UTC+00:00)

X-37B - Pass Details

Date: 07 December 2021
Orbit: 334 x 337 km, 45.0° (Epoch: 11 January)

Event Time Altitude Azimuth Distance (km) Brightness Sun altitude
Rises 17:12:56 0° 221° (SW) 2,093 5.4 -13.7°
Reaches altitude 10° 17:15:10 10° 205° (SSW) 1,260 3.8 -14.1°
Maximum altitude 17:17:26 22° 151° (SSE) 794 2.0 -14.5°
Enters shadow 17:18:04 20° 130° (SE) 839 2.0 -14.6°
